TimeEST,TemperatureF,Dew PointF,Humidity,Sea Level PressureIn,VisibilityMPH,Wind Direction,Wind SpeedMPH,Gust SpeedMPH,PrecipitationIn,Events,Conditions,WindDirDegrees,DateUTC
12:15 AM,28.4,12.2,51,29.74,10.0,West,10.4,-,N/A,,Clear,280,2012-11-26 05:15:00
12:35 AM,28.4,10.4,47,29.75,10.0,WNW,9.2,16.1,N/A,,Clear,290,2012-11-26 05:35:00
12:55 AM,28.4,10.4,47,29.75,10.0,West,13.8,-,N/A,,Clear,280,2012-11-26 05:55:00
1:15 AM,26.6,10.4,51,29.76,10.0,West,9.2,17.3,N/A,,Clear,280,2012-11-26 06:15:00
1:35 AM,26.6,10.4,51,29.77,10.0,West,15.0,-,N/A,,Clear,280,2012-11-26 06:35:00
1:55 AM,26.6,10.4,51,29.77,10.0,West,12.7,18.4,N/A,,Clear,280,2012-11-26 06:55:00
2:15 AM,26.6,10.4,51,29.78,10.0,West,15.0,19.6,N/A,,Clear,280,2012-11-26 07:15:00
2:35 AM,26.6,10.4,51,29.78,10.0,West,15.0,20.7,N/A,,Clear,280,2012-11-26 07:35:00
2:55 AM,26.6,10.4,51,29.79,10.0,West,12.7,-,N/A,,Clear,260,2012-11-26 07:55:00
3:15 AM,26.6,10.4,51,29.79,10.0,West,13.8,18.4,N/A,,Clear,270,2012-11-26 08:15:00
3:35 AM,26.6,10.4,51,29.80,10.0,West,10.4,-,N/A,,Clear,260,2012-11-26 08:35:00
3:55 AM,26.6,12.2,55,29.80,10.0,West,13.8,18.4,N/A,,Clear,260,2012-11-26 08:55:00
4:15 AM,26.6,12.2,55,29.81,10.0,WSW,9.2,-,N/A,,Clear,250,2012-11-26 09:15:00
4:35 AM,26.6,12.2,55,29.82,10.0,WSW,10.4,-,N/A,,Clear,240,2012-11-26 09:35:00
4:55 AM,26.6,12.2,55,29.82,10.0,WSW,12.7,-,N/A,,Clear,250,2012-11-26 09:55:00
5:15 AM,28.4,14.0,55,29.83,10.0,WSW,11.5,-,N/A,,Clear,250,2012-11-26 10:15:00
5:35 AM,26.6,12.2,55,29.83,10.0,WSW,9.2,-,N/A,,Clear,250,2012-11-26 10:35:00
5:55 AM,26.6,12.2,55,29.84,10.0,WSW,4.6,-,N/A,,Clear,250,2012-11-26 10:55:00
6:15 AM,26.6,12.2,55,29.84,10.0,WSW,5.8,-,N/A,,Clear,240,2012-11-26 11:15:00
6:35 AM,26.6,12.2,55,29.85,10.0,WSW,5.8,-,N/A,,Clear,240,2012-11-26 11:35:00
6:55 AM,26.6,12.2,55,29.85,10.0,WSW,5.8,-,N/A,,Clear,240,2012-11-26 11:55:00
7:15 AM,26.6,14.0,59,29.86,10.0,WSW,4.6,-,N/A,,Clear,250,2012-11-26 12:15:00
7:35 AM,28.4,15.8,59,29.87,10.0,WSW,8.1,-,N/A,,Clear,250,2012-11-26 12:35:00
7:55 AM,28.4,15.8,59,29.87,10.0,WSW,8.1,-,N/A,,Clear,240,2012-11-26 12:55:00
8:15 AM,30.2,17.6,60,29.88,10.0,West,8.1,-,N/A,,Clear,270,2012-11-26 13:15:00
8:35 AM,30.2,17.6,60,29.89,10.0,West,9.2,-,N/A,,Clear,260,2012-11-26 13:35:00
8:55 AM,32.0,17.6,55,29.89,10.0,West,10.4,-,N/A,,Clear,270,2012-11-26 13:55:00
9:35 AM,35.6,19.4,52,29.90,10.0,West,12.7,-,N/A,,Clear,270,2012-11-26 14:35:00
9:55 AM,35.6,19.4,52,29.90,10.0,West,12.7,19.6,N/A,,Clear,260,2012-11-26 14:55:00
10:15 AM,37.4,21.2,52,29.90,10.0,WSW,11.5,-,N/A,,Clear,240,2012-11-26 15:15:00
10:35 AM,37.4,21.2,52,29.90,10.0,West,17.3,-,N/A,,Clear,270,2012-11-26 15:35:00
10:55 AM,37.4,21.2,52,29.90,10.0,West,18.4,21.9,N/A,,Clear,270,2012-11-26 15:55:00
11:15 AM,39.2,21.2,49,29.90,10.0,West,16.1,23.0,N/A,,Clear,280,2012-11-26 16:15:00
11:35 AM,39.2,23.0,52,29.90,10.0,West,13.8,20.7,N/A,,Clear,280,2012-11-26 16:35:00
11:55 AM,39.2,21.2,49,29.90,10.0,West,15.0,20.7,N/A,,Clear,270,2012-11-26 16:55:00
12:15 PM,39.2,21.2,49,29.90,10.0,West,18.4,24.2,N/A,,Partly Cloudy,260,2012-11-26 17:15:00
12:35 PM,39.2,19.4,45,29.90,10.0,WNW,15.0,24.2,N/A,,Partly Cloudy,290,2012-11-26 17:35:00
12:55 PM,39.2,21.2,49,29.90,10.0,West,18.4,26.5,N/A,,Clear,270,2012-11-26 17:55:00
1:15 PM,39.2,19.4,45,29.91,10.0,West,20.7,32.2,N/A,,Clear,280,2012-11-26 18:15:00
1:35 PM,39.2,21.2,49,29.92,10.0,WNW,17.3,23.0,N/A,,Clear,290,2012-11-26 18:35:00
1:55 PM,39.2,21.2,49,29.93,10.0,West,16.1,24.2,N/A,,Clear,280,2012-11-26 18:55:00
2:15 PM,39.2,19.4,45,29.93,10.0,West,18.4,26.5,N/A,,Clear,280,2012-11-26 19:15:00
2:35 PM,39.2,21.2,49,29.94,10.0,West,12.7,23.0,N/A,,Clear,270,2012-11-26 19:35:00
2:55 PM,39.2,19.4,45,29.95,10.0,West,12.7,20.7,N/A,,Clear,280,2012-11-26 19:55:00
3:15 PM,39.2,21.2,49,29.97,10.0,WNW,11.5,17.3,N/A,,Clear,290,2012-11-26 20:15:00
3:35 PM,37.4,19.4,48,29.98,10.0,West,11.5,-,N/A,,Clear,280,2012-11-26 20:35:00
3:55 PM,37.4,19.4,48,29.99,10.0,West,16.1,-,N/A,,Clear,270,2012-11-26 20:55:00
4:15 PM,37.4,17.6,45,30.01,10.0,West,15.0,23.0,N/A,,Clear,270,2012-11-26 21:15:00
4:35 PM,35.6,17.6,48,30.03,10.0,West,16.1,-,N/A,,Clear,280,2012-11-26 21:35:00
4:56 PM,35.6,17.6,48,30.04,10.0,West,13.8,19.6,N/A,,Clear,280,2012-11-26 21:56:00
5:15 PM,35.6,17.6,48,30.04,10.0,West,17.3,-,N/A,,Clear,280,2012-11-26 22:15:00
5:35 PM,35.6,17.6,48,30.06,10.0,West,11.5,18.4,N/A,,Clear,280,2012-11-26 22:35:00
5:55 PM,35.6,17.6,48,30.07,10.0,WNW,9.2,18.4,N/A,,Clear,300,2012-11-26 22:55:00
6:15 PM,33.8,17.6,52,30.08,10.0,WNW,9.2,17.3,N/A,,Clear,290,2012-11-26 23:15:00
6:35 PM,33.8,17.6,52,30.08,10.0,WNW,8.1,-,N/A,,Clear,290,2012-11-26 23:35:00
6:55 PM,33.8,17.6,52,30.10,10.0,WNW,3.5,-,N/A,,Clear,300,2012-11-26 23:55:00
7:15 PM,32.0,17.6,55,30.11,10.0,NNW,3.5,-,N/A,,Clear,340,2012-11-27 00:15:00
7:35 PM,30.2,15.8,55,30.12,10.0,West,3.5,-,N/A,,Clear,280,2012-11-27 00:35:00
7:55 PM,30.2,12.2,47,30.13,10.0,WNW,9.2,-,N/A,,Clear,290,2012-11-27 00:55:00
8:15 PM,28.4,15.8,59,30.14,10.0,WNW,6.9,-,N/A,,Clear,300,2012-11-27 01:15:00
8:55 PM,28.4,10.4,47,30.16,10.0,NW,5.8,-,N/A,,Clear,310,2012-11-27 01:55:00
9:15 PM,28.4,10.4,47,30.17,10.0,Calm,Calm,-,N/A,,Clear,0,2012-11-27 02:15:00
9:35 PM,28.4,10.4,47,30.18,10.0,NW,5.8,-,N/A,,Clear,310,2012-11-27 02:35:00
9:55 PM,28.4,10.4,47,30.19,10.0,WNW,4.6,-,N/A,,Clear,290,2012-11-27 02:55:00
10:15 PM,26.6,10.4,51,30.20,10.0,Calm,Calm,-,N/A,,Clear,0,2012-11-27 03:15:00
10:35 PM,26.6,12.2,55,30.20,10.0,Calm,Calm,-,N/A,,Clear,0,2012-11-27 03:35:00
10:55 PM,26.6,12.2,55,30.21,10.0,Calm,Calm,-,N/A,,Clear,0,2012-11-27 03:55:00
11:15 PM,26.6,14.0,59,30.22,10.0,NNW,3.5,-,N/A,,Clear,330,2012-11-27 04:15:00
11:35 PM,23.0,12.2,63,30.23,10.0,West,3.5,-,N/A,,Clear,280,2012-11-27 04:35:00